Simultaneous Nadir Overpasses (SNOs) Predictions

Prediction of SNOs between METOP-B and NOAA-19 Satellite Orbit:

Table of predicted SNOs for the next 14.0 days since TLE Epoch: 1/15/2017
Index Date (METOP-B) Time (METOP-B) Lat,Lon (METOP-B) SZA (METOP-B ) Date (NOAA-19) Time (NOAA-19) Lat,Lon (NOAA-19) SZA (NOAA-19 ) Distance(km) Time Diff (sec)
1 01/25/2017 22:38:23 77.18,-154.70 95.84 01/25/2017 22:37:17 77.18,-158.09 95.84 83.79 66
2 01/25/2017 23:29:14 -76.77, 10.97 84.59 01/25/2017 23:28:12 -76.77, 10.93 84.59 0.96 62
3 01/26/2017 00:19:54 76.76, 178.27 95.40 01/26/2017 00:19:09 76.77, 178.21 95.40 1.72 45
4 01/26/2017 01:10:36 -76.75, -14.45 84.63 01/26/2017 01:10:13 -76.74, -14.44 84.64 1.24 23
5 01/26/2017 02:01:16 76.74, 152.85 95.36 01/26/2017 02:01:10 76.73, 152.84 95.35 0.80 6
6 01/26/2017 02:51:58 -76.73, -39.87 84.67 01/26/2017 02:52:14 -76.70, -39.81 84.69 2.97 16
7 01/26/2017 03:42:38 76.72, 127.43 95.32 01/26/2017 03:43:11 76.70, 127.47 95.30 2.35 33
8 01/26/2017 04:33:20 -76.71, -65.29 84.71 01/26/2017 04:34:16 -76.71, -65.36 84.70 1.96 56
9 01/26/2017 05:24:00 76.70, 102.01 95.28 01/26/2017 05:25:13 76.71, 101.92 95.29 2.57 73




NCC Satellite Simultaneous Nadir Overpasses (SNOs) Prediction Service
